Location: Morlupo
(42.1333°N, 12.5000°E)
Time: 16:08:50
(UTC+00:00)

USA 234 - Pass Details

Date: 18 September 2020
Orbit: 1102 x 1106 km, 123.0° (Epoch: 16 October)

Event Time Altitude Azimuth Distance (km) Brightness Sun altitude
Exits shadow 20:19:21 - 43° (NE) 3,091 5.6 -32.8°
Reaches altitude 10° 20:19:41 10° 42° (NE) 2,966 5.5 -32.8°
Maximum altitude 20:25:58 51° 329° (NNW) 1,360 3.9 -33.7°
Drops below altitude 10° 20:32:14 10° 256° (WSW) 2,960 5.8 -34.6°
Sets 20:34:47 0° 251° (WSW) 3,916 6.5 -35.0°
